Date,TemperatureHighF,TemperatureAvgF,TemperatureLowF,DewpointHighF,DewpointAvgF,DewpointLowF,HumidityHigh,HumidityAvg,HumidityLow,PressureMaxIn,PressureMinIn,WindSpeedMaxMPH,WindSpeedAvgMPH,GustSpeedMaxMPH,PrecipitationSumIn
2013-9-1,77.9,71.3,66.1,64.9,63.1,60.7,84,76,61,30.10,30.04,16,2,16,0.00
2013-9-2,82.1,75.5,68.6,66.4,64.2,62.5,84,69,52,30.16,30.06,19,5,22,0.00
2013-9-3,74.0,71.2,67.2,64.6,61.5,57.8,90,72,61,30.13,30.05,21,5,22,0.02
2013-9-4,77.2,70.1,66.3,64.9,63.1,58.2,93,79,54,30.13,30.07,19,5,26,0.07
2013-9-5,80.1,73.4,64.6,64.8,60.5,52.3,93,67,40,30.15,30.06,31,7,31,0.06
2013-9-6,68.3,65.9,64.8,65.5,62.4,60.1,93,89,82,30.13,30.07,14,2,15,0.09
2013-9-7,80.0,73.0,66.3,65.5,63.5,61.7,88,73,56,30.12,30.04,24,4,24,0.00
2013-9-8,78.3,71.7,67.4,65.8,64.8,62.6,89,80,65,30.11,30.05,17,4,17,0.00
2013-9-9,68.7,66.8,65.7,64.8,64.1,63.5,94,91,86,30.08,30.01,6,2,11,0.05
2013-9-10,80.1,70.1,66.4,69.0,64.7,63.1,90,83,65,29.99,29.86,9,1,9,0.00
2013-9-11,77.3,67.4,65.1,71.0,64.4,62.5,93,90,81,29.96,29.89,6,1,6,0.00
2013-9-12,84.8,75.3,64.8,71.1,68.1,63.6,97,80,58,30.00,29.90,12,2,12,0.00
2013-9-13,78.2,68.5,62.6,69.0,63.9,59.9,95,86,71,30.01,29.91,9,2,9,0.00
2013-9-14,76.5,69.3,65.7,67.7,66.0,64.2,96,90,73,29.98,29.92,9,2,2,0.00
2013-9-15,82.5,73.1,65.1,70.8,66.9,63.6,96,82,62,29.98,29.86,13,3,18,0.00
2013-9-16,76.3,68.8,65.5,66.3,64.6,63.4,94,87,69,29.94,29.87,8,1,12,0.00
2013-9-17,83.3,75.3,67.2,71.9,68.1,65.1,94,79,64,29.89,29.74,16,3,16,0.00
2013-9-18,84.5,77.5,74.1,73.5,72.1,70.9,92,84,68,29.87,29.75,11,2,11,0.00
2013-9-19,83.8,76.2,69.4,73.6,70.0,66.8,92,82,65,29.89,29.78,6,2,12,0.00
2013-9-20,82.3,71.0,66.7,70.6,65.7,63.9,92,84,64,29.92,29.82,9,2,11,0.00
2013-9-21,83.9,70.7,66.6,71.3,66.7,64.4,93,87,66,29.89,29.79,6,1,8,0.00
2013-9-22,83.3,73.7,66.9,71.2,66.9,64.8,94,81,60,29.89,29.81,13,2,13,0.00
2013-9-23,82.3,72.0,65.9,70.9,67.3,64.4,96,86,65,29.95,29.87,13,1,13,0.00
2013-9-24,83.6,75.6,32.0,70.1,66.7,32.0,95,75,55,29.99,29.88,13,3,14,0.00
2013-9-25,79.7,68.2,62.5,66.5,64.0,61.0,95,87,64,30.00,29.93,7,1,2,0.00
2013-9-26,81.7,68.3,64.4,66.5,63.8,62.1,94,87,59,30.00,29.89,8,1,2,0.00
2013-9-27,80.6,67.8,64.2,68.7,64.1,62.4,95,89,65,29.98,29.92,7,1,7,0.00
2013-9-28,84.0,74.0,65.6,70.8,67.4,64.0,95,81,62,29.96,29.90,16,2,16,0.03
2013-9-29,85.1,76.5,68.9,70.8,68.8,67.0,94,79,61,29.94,29.85,7,2,14,0.00
2013-9-30,83.2,76.8,69.1,71.1,68.5,66.7,92,77,62,29.98,29.90,9,4,20,0.00